Total_Precipitation_Accumulation
0.03 0.06 0.08 0.08 0.06 0.05 0.05 0.07 0.05 0.03 0.03 0.04 0.05 0.07 0.08 0.09 0.08 0.08 0.07 0.07 0.08 0.07 0.05 0.04 0.03 0.03 0.02 0.03 0.04 0.06 0.07 0.06 0.07 0.08 0.09 0.08 0.05 0.02 0.01 0.01 0.02 0.09 0.04
0.05 0.08 0.08 0.07 0.06 0.04 0.04 0.04 0.03 0.02 0.03 0.05 0.04 0.03 0.04 0.06 0.07 0.08 0.09 0.09 0.10 0.09 0.08 0.08 0.07 0.05 0.03 0.05 0.08 0.07 0.06 0.05 0.05 0.07 0.08 0.09 0.09 0.05 0.01 0.01 0.03 0.09 0.03
0.04 0.07 0.08 0.07 0.05 0.04 0.04 0.03 0.03 0.02 0.02 0.03 0.02 0.02 0.02 0.03 0.04 0.05 0.07 0.08 0.08 0.08 0.08 0.09 0.11 0.09 0.04 0.05 0.09 0.09 0.08 0.07 0.07 0.07 0.05 0.07 0.13 0.10 0.05 0.03 0.04 0.09 0.03
0.02 0.04 0.06 0.07 0.06 0.05 0.04 0.04 0.03 0.02 0.02 0.02 0.01 0.01 0.02 0.02 0.03 0.04 0.05 0.06 0.07 0.08 0.10 0.10 0.11 0.11 0.07 0.08 0.09 0.09 0.09 0.08 0.07 0.05 0.01 0.04 0.20 0.25 0.18 0.07 0.02 0.06 0.04
0.01 0.02 0.05 0.07 0.06 0.06 0.06 0.05 0.03 0.03 0.03 0.03 0.02 0.01 0.01 0.02 0.02 0.03 0.03 0.03 0.03 0.05 0.07 0.08 0.12 0.12 0.11 0.10 0.09 0.11 0.12 0.11 0.07 0.02 0.01 0.07 0.23 0.30 0.22 0.13 0.06 0.07 0.06
0.02 0.02 0.04 0.06 0.06 0.07 0.07 0.06 0.04 0.03 0.03 0.03 0.02 0.02 0.02 0.03 0.03 0.03 0.03 0.02 0.02 0.03 0.05 0.08 0.13 0.17 0.13 0.11 0.14 0.16 0.22 0.20 0.10 0.03 0.02 0.06 0.16 0.24 0.25 0.24 0.17 0.10 0.07
0.03 0.04 0.04 0.04 0.05 0.06 0.06 0.05 0.04 0.03 0.03 0.03 0.02 0.02 0.02 0.03 0.03 0.04 0.05 0.04 0.03 0.02 0.03 0.06 0.10 0.18 0.17 0.16 0.21 0.24 0.30 0.23 0.11 0.11 0.06 0.04 0.10 0.22 0.35 0.35 0.25 0.13 0.07
0.00 0.00 0.00 0.01 0.01 0.02 0.04 0.05 0.04 0.03 0.03 0.03 0.03 0.02 0.02 0.02 0.04 0.07 0.09 0.08 0.06 0.04 0.04 0.05 0.06 0.11 0.16 0.19 0.23 0.27 0.29 0.16 0.12 0.22 0.18 0.14 0.18 0.32 0.40 0.52 0.42 0.22 0.12
0.00 0.00 0.00 0.00 0.00 0.00 0.02 0.03 0.03 0.02 0.02 0.02 0.02 0.01 0.01 0.02 0.03 0.06 0.07 0.06 0.06 0.06 0.06 0.05 0.03 0.05 0.10 0.15 0.18 0.21 0.21 0.12 0.12 0.31 0.31 0.39 0.29 0.33 0.35 0.47 0.49 0.35 0.21
0.00 0.00 0.00 0.00 0.00 0.00 0.00 0.01 0.01 0.01 0.02 0.03 0.02 0.02 0.02 0.02 0.05 0.06 0.05 0.06 0.05 0.06 0.06 0.05 0.05 0.03 0.03 0.05 0.07 0.09 0.08 0.05 0.06 0.22 0.48 0.46 0.33 0.44 0.44 0.44 0.46 0.40 0.33
0.00 0.00 0.00 0.00 0.00 0.00 0.00 0.00 0.00 0.00 0.01 0.02 0.04 0.04 0.03 0.03 0.03 0.03 0.03 0.04 0.04 0.04 0.03 0.04 0.05 0.05 0.04 0.02 0.02 0.03 0.03 0.00 0.04 0.16 0.28 0.30 0.37 0.47 0.55 0.54 0.52 0.43 0.35
0.00 0.00 0.00 0.00 0.00 0.00 0.00 0.00 0.00 0.00 0.00 0.01 0.02 0.03 0.03 0.04 0.04 0.06 0.06 0.07 0.05 0.04 0.05 0.06 0.06 0.05 0.04 0.02 0.06 0.08 0.03 0.01 0.01 0.03 0.07 0.13 0.25 0.39 0.48 0.55 0.65 0.57 0.42
0.00 0.00 0.00 0.00 0.00 0.00 0.00 0.00 0.00 0.00 0.00 0.00 0.00 0.00 0.00 0.01 0.02 0.04 0.04 0.06 0.06 0.07 0.09 0.10 0.10 0.10 0.11 0.12 0.14 0.14 0.09 0.06 0.04 0.03 0.03 0.07 0.13 0.21 0.35 0.47 0.62 0.68 0.59
0.00 0.00 0.00 0.00 0.00 0.00 0.00 0.00 0.00 0.00 0.00 0.00 0.00 0.00 0.00 0.00 0.00 0.01 0.02 0.02 0.03 0.06 0.09 0.13 0.15 0.15 0.13 0.12 0.13 0.13 0.13 0.13 0.08 0.07 0.05 0.08 0.10 0.09 0.16 0.28 0.44 0.64 0.69
0.00 0.00 0.00 0.00 0.00 0.00 0.00 0.00 0.00 0.00 0.00 0.00 0.00 0.00 0.00 0.00 0.00 0.00 0.00 0.00 0.01 0.01 0.02 0.03 0.05 0.08 0.09 0.09 0.11 0.11 0.12 0.11 0.09 0.10 0.09 0.10 0.10 0.09 0.09 0.15 0.26 0.48 0.66
0.00 0.00 0.00 0.00 0.00 0.00 0.00 0.00 0.00 0.00 0.00 0.00 0.00 0.00 0.00 0.00 0.00 0.00 0.00 0.00 0.00 0.00 0.00 0.00 0.01 0.02 0.02 0.03 0.04 0.05 0.07 0.08 0.08 0.11 0.12 0.14 0.13 0.11 0.10 0.11 0.16 0.27 0.45
0.00 0.00 0.00 0.00 0.00 0.00 0.00 0.00 0.00 0.00 0.00 0.00 0.00 0.00 0.00 0.00 0.00 0.00 0.00 0.00 0.00 0.00 0.00 0.00 0.00 0.00 0.00 0.01 0.01 0.01 0.02 0.03 0.05 0.07 0.09 0.13 0.17 0.15 0.13 0.11 0.11 0.16 0.22
0.00 0.00 0.00 0.00 0.00 0.00 0.00 0.00 0.00 0.00 0.00 0.00 0.00 0.00 0.00 0.00 0.00 0.00 0.00 0.00 0.00 0.00 0.00 0.00 0.00 0.00 0.00 0.00 0.00 0.00 0.00 0.00 0.01 0.02 0.05 0.08 0.14 0.17 0.15 0.14 0.13 0.13 0.15
0.00 0.00 0.00 0.00 0.00 0.00 0.00 0.00 0.00 0.00 0.00 0.00 0.00 0.00 0.00 0.00 0.00 0.00 0.00 0.00 0.00 0.00 0.00 0.00 0.00 0.00 0.00 0.00 0.00 0.00 0.00 0.00 0.00 0.00 0.01 0.03 0.06 0.13 0.17 0.17 0.17 0.14 0.14
0.00 0.00 0.00 0.00 0.00 0.00 0.00 0.00 0.00 0.00 0.00 0.00 0.00 0.00 0.00 0.00 0.00 0.00 0.00 0.00 0.00 0.00 0.00 0.00 0.00 0.00 0.00 0.00 0.00 0.00 0.00 0.00 0.00 0.00 0.00 0.01 0.02 0.04 0.11 0.15 0.17 0.15 0.12
0.00 0.00 0.00 0.00 0.00 0.00 0.00 0.00 0.00 0.00 0.00 0.00 0.00 0.00 0.00 0.00 0.00 0.00 0.00 0.00 0.00 0.00 0.00 0.00 0.00 0.00 0.00 0.01 0.02 0.01 0.00 0.00 0.00 0.00 0.00 0.00 0.01 0.01 0.03 0.08 0.14 0.18 0.15
0.00 0.00 0.00 0.00 0.00 0.00 0.00 0.00 0.00 0.00 0.00 0.00 0.00 0.00 0.00 0.00 0.00 0.00 0.00 0.00 0.00 0.00 0.00 0.00 0.00 0.01 0.01 0.01 0.03 0.05 0.02 0.00 0.00 0.00 0.00 0.00 0.00 0.01 0.01 0.03 0.07 0.13 0.17
0.00 0.00 0.00 0.00 0.00 0.00 0.00 0.00 0.00 0.00 0.00 0.00 0.00 0.00 0.00 0.00 0.00 0.00 0.00 0.00 0.00 0.00 0.00 0.00 0.01 0.02 0.02 0.01 0.02 0.09 0.11 0.05 0.02 0.00 0.00 0.01 0.01 0.01 0.01 0.01 0.03 0.06 0.11
0.00 0.00 0.00 0.00 0.00 0.00 0.00 0.00 0.00 0.00 0.00 0.00 0.00 0.00 0.00 0.00 0.00 0.00 0.00 0.00 0.00 0.00 0.01 0.01 0.01 0.02 0.04 0.04 0.02 0.04 0.08 0.09 0.09 0.04 0.01 0.02 0.03 0.03 0.02 0.01 0.01 0.03 0.06
0.00 0.00 0.00 0.00 0.00 0.00 0.00 0.00 0.00 0.00 0.00 0.00 0.00 0.00 0.00 0.00 0.00 0.00 0.00 0.00 0.00 0.00 0.01 0.01 0.01 0.02 0.04 0.06 0.06 0.05 0.04 0.05 0.06 0.07 0.04 0.02 0.04 0.04 0.04 0.03 0.02 0.02 0.04
0.00 0.00 0.00 0.00 0.00 0.00 0.00 0.00 0.00 0.00 0.00 0.00 0.00 0.00 0.00 0.01 0.01 0.01 0.00 0.00 0.00 0.01 0.01 0.01 0.02 0.03 0.03 0.05 0.06 0.07 0.07 0.08 0.07 0.08 0.08 0.03 0.02 0.02 0.04 0.04 0.04 0.06 0.07